| time (UTC) | temp F | wind direction | speed MPH | gust MPH | rain 1hr in | rain 24hr in | rain mn in | humidity % | barometer mb |
| 20260901231252 | 57 | 0 | 5.0 | 6.0 | 0.00 | 0.00 | 0.00 | 89 | 1020.9 |
| 20260901230753 | 57 | 0 | 5.0 | 7.0 | 0.00 | 0.00 | 0.00 | 88 | 1021.0 |
| 20260901230251 | 57 | 0 | 4.0 | 7.0 | 0.00 | 0.00 | 0.00 | 89 | 1021.0 |
| 20260901225751 | 57 | 0 | 5.0 | 7.0 | 0.00 | 0.00 | 0.00 | 89 | 1021.0 |
| 20260901225251 | 57 | 0 | 5.0 | 7.0 | 0.00 | 0.00 | 0.00 | 89 | 1021.1 |
| 20260901224754 | 57 | 0 | 4.0 | 6.0 | 0.00 | 0.00 | 0.00 | 89 | 1021.1 |
| 20260901224251 | 57 | 0 | 4.0 | 5.0 | 0.00 | 0.00 | 0.00 | 88 | 1021.0 |
| 20260901222752 | 57 | 0 | 5.0 | 7.0 | 0.00 | 0.00 | 0.00 | 88 | 1021.1 |
| 20260901222250 | 57 | 0 | 4.0 | 5.0 | 0.00 | 0.00 | 0.00 | 88 | 1021.1 |
| 20260901221753 | 57 | 0 | 3.0 | 5.0 | 0.00 | 0.00 | 0.00 | 88 | 1021.1 |
| 20260901221250 | 57 | 0 | 4.0 | 7.0 | 0.00 | 0.00 | 0.00 | 88 | 1021.0 |
| 20260901220752 | 57 | 0 | 5.0 | 7.0 | 0.00 | 0.00 | 0.00 | 88 | 1021.0 |
| 20260901220250 | 57 | 0 | 5.0 | 6.0 | 0.00 | 0.00 | 0.00 | 88 | 1021.0 |
| 20260901215752 | 57 | 0 | 5.0 | 6.0 | 0.00 | 0.00 | 0.00 | 88 | 1021.1 |
| 20260901215250 | 57 | 0 | 5.0 | 6.0 | 0.00 | 0.00 | 0.00 | 88 | 1021.2 |
| 20260901214751 | 57 | 0 | 4.0 | 6.0 | 0.00 | 0.00 | 0.00 | 88 | 1021.2 |
| 20260901214249 | 57 | 0 | 4.0 | 6.0 | 0.00 | 0.00 | 0.00 | 88 | 1021.2 |
| 20260901212753 | 56 | 0 | 3.0 | 5.0 | 0.00 | 0.00 | 0.00 | 88 | 1021.2 |
| 20260901212251 | 56 | 0 | 3.0 | 4.0 | 0.00 | 0.00 | 0.00 | 87 | 1021.2 |
| 20260901211753 | 57 | 0 | 3.0 | 5.0 | 0.00 | 0.00 | 0.00 | 87 | 1021.3 |
| 20260901211249 | 57 | 0 | 4.0 | 5.0 | 0.00 | 0.00 | 0.00 | 87 | 1021.4 |
| 20260901210755 | 57 | 0 | 3.0 | 4.0 | 0.00 | 0.00 | 0.00 | 87 | 1021.3 |
| 20260901210248 | 57 | 0 | 2.0 | 5.0 | 0.00 | 0.00 | 0.00 | 86 | 1021.3 |
| 20260901205752 | 57 | 0 | 3.0 | 5.0 | 0.00 | 0.00 | 0.00 | 86 | 1021.3 |
| 20260901205248 | 57 | 0 | 4.0 | 5.0 | 0.00 | 0.00 | 0.00 | 86 | 1021.3 |
| 20260901204751 | 58 | 0 | 3.0 | 5.0 | 0.00 | 0.00 | 0.00 | 86 | 1021.3 |
| 20260901204248 | 58 | 0 | 4.0 | 5.0 | 0.00 | 0.00 | 0.00 | 85 | 1021.3 |
| 20260901203750 | 58 | 0 | 3.0 | 4.0 | 0.00 | 0.00 | 0.00 | 85 | 1021.4 |
| 20260901203250 | 58 | 0 | 3.0 | 4.0 | 0.00 | 0.00 | 0.00 | 85 | 1021.3 |
| 20260901202751 | 59 | 0 | 3.0 | 4.0 | 0.00 | 0.00 | 0.00 | 85 | 1021.4 |
| 20260901202248 | 59 | 0 | 2.0 | 4.0 | 0.00 | 0.00 | 0.00 | 84 | 1021.5 |
| 20260901201752 | 59 | 0 | 2.0 | 4.0 | 0.00 | 0.00 | 0.00 | 84 | 1021.5 |
| 20260901200756 | 60 | 0 | 2.0 | 3.0 | 0.00 | 0.00 | 0.00 | 83 | 1021.4 |
| 20260901195751 | 60 | 0 | 1.0 | 3.0 | 0.00 | 0.00 | 0.00 | 82 | 1021.5 |
| 20260901195249 | 60 | 0 | 2.0 | 3.0 | 0.00 | 0.00 | 0.00 | 81 | 1021.5 |
| 20260901194247 | 61 | 0 | 2.0 | 4.0 | 0.00 | 0.00 | 0.00 | 81 | 1021.4 |
| 20260901192750 | 61 | 0 | 2.0 | 3.0 | 0.00 | 0.00 | 0.00 | 81 | 1021.2 |
| 20260901192248 | 61 | 0 | 2.0 | 3.0 | 0.00 | 0.00 | 0.00 | 81 | 1021.3 |
| 20260901191246 | 62 | 0 | 2.0 | 3.0 | 0.00 | 0.00 | 0.00 | 80 | 1021.1 |
| 20260901190749 | 62 | 0 | 2.0 | 3.0 | 0.00 | 0.00 | 0.00 | 80 | 1021.2 |
| 20260901190246 | 63 | 0 | 2.0 | 3.0 | 0.00 | 0.00 | 0.00 | 79 | 1021.2 |
| 20260901185251 | 63 | 0 | 2.0 | 3.0 | 0.00 | 0.00 | 0.00 | 78 | 1021.1 |
| 20260901184753 | 64 | 0 | 2.0 | 4.0 | 0.00 | 0.00 | 0.00 | 77 | 1021.1 |
| 20260901183754 | 64 | 0 | 2.0 | 7.0 | 0.00 | 0.00 | 0.00 | 76 | 1021.0 |
| 20260901183246 | 64 | 0 | 2.0 | 7.0 | 0.00 | 0.00 | 0.00 | 76 | 1020.9 |
| 20260901182750 | 64 | 0 | 4.0 | 7.0 | 0.00 | 0.00 | 0.00 | 77 | 1020.9 |
| 20260901182245 | 64 | 0 | 1.0 | 2.0 | 0.00 | 0.00 | 0.00 | 76 | 1020.9 |
| 20260901181756 | 64 | 0 | 1.0 | 3.0 | 0.00 | 0.00 | 0.00 | 75 | 1020.9 |
| 20260901181244 | 65 | 0 | 1.0 | 3.0 | 0.00 | 0.00 | 0.00 | 75 | 1020.8 |
| 20260901180238 | 65 | 0 | 1.0 | 3.0 | 0.00 | 0.00 | 0.00 | 74 | 1020.7 |
| 20260901175737 | 65 | 0 | 2.0 | 3.0 | 0.00 | 0.00 | 0.00 | 73 | 1020.7 |
| 20260901175238 | 65 | 0 | 1.0 | 5.0 | 0.00 | 0.00 | 0.00 | 73 | 1020.8 |
| 20260901174738 | 65 | 0 | 2.0 | 5.0 | 0.00 | 0.00 | 0.00 | 73 | 1020.8 |
| 20260901174239 | 66 | 0 | 2.0 | 5.0 | 0.00 | 0.00 | 0.00 | 72 | 1020.7 |
| 20260901172736 | 66 | 0 | 3.0 | 5.0 | 0.00 | 0.00 | 0.00 | 71 | 1020.8 |
| 20260901171744 | 67 | 0 | 3.0 | 9.0 | 0.00 | 0.00 | 0.00 | 71 | 1020.9 |
| 20260901171240 | 67 | 0 | 4.0 | 11.0 | 0.00 | 0.00 | 0.00 | 69 | 1021.0 |
| 20260901170737 | 67 | 0 | 7.0 | 12.0 | 0.00 | 0.00 | 0.00 | 68 | 1021.0 |
| 20260901170237 | 68 | 0 | 6.0 | 12.0 | 0.00 | 0.00 | 0.00 | 68 | 1021.1 |
| 20260901165735 | 68 | 0 | 8.0 | 11.0 | 0.00 | 0.00 | 0.00 | 66 | 1021.0 |
| 20260901165239 | 69 | 0 | 6.0 | 10.0 | 0.00 | 0.00 | 0.00 | 65 | 1021.0 |
| 20260901164735 | 69 | 0 | 5.0 | 10.0 | 0.00 | 0.00 | 0.00 | 65 | 1021.0 |
| 20260901164243 | 69 | 0 | 6.0 | 12.0 | 0.00 | 0.00 | 0.00 | 65 | 1020.9 |
| 20260901163735 | 70 | 0 | 8.0 | 12.0 | 0.00 | 0.00 | 0.00 | 63 | 1020.8 |
| 20260901163237 | 69 | 0 | 5.0 | 12.0 | 0.00 | 0.00 | 0.00 | 65 | 1020.8 |
| 20260901162736 | 69 | 0 | 8.0 | 12.0 | 0.00 | 0.00 | 0.00 | 64 | 1020.9 |
| 20260901162237 | 69 | 0 | 4.0 | 12.0 | 0.00 | 0.00 | 0.00 | 62 | 1020.9 |
| 20260901161734 | 70 | 0 | 5.0 | 10.0 | 0.00 | 0.00 | 0.00 | 61 | 1020.9 |
| 20260901161238 | 70 | 0 | 7.0 | 11.0 | 0.00 | 0.00 | 0.00 | 60 | 1020.9 |
| 20260901160734 | 71 | 0 | 6.0 | 11.0 | 0.00 | 0.00 | 0.00 | 59 | 1020.8 |
| 20260901160237 | 71 | 0 | 5.0 | 9.0 | 0.00 | 0.00 | 0.00 | 59 | 1020.8 |
| 20260901155734 | 70 | 0 | 6.0 | 13.0 | 0.00 | 0.00 | 0.00 | 58 | 1020.8 |
| 20260901155237 | 70 | 0 | 8.0 | 13.0 | 0.00 | 0.00 | 0.00 | 57 | 1020.8 |
| 20260901154734 | 71 | 0 | 5.0 | 11.0 | 0.00 | 0.00 | 0.00 | 60 | 1020.8 |
| 20260901153734 | 71 | 0 | 6.0 | 11.0 | 0.00 | 0.00 | 0.00 | 57 | 1020.8 |
| 20260901153239 | 71 | 0 | 5.0 | 12.0 | 0.00 | 0.00 | 0.00 | 63 | 1020.8 |
| 20260901152735 | 71 | 0 | 7.0 | 12.0 | 0.00 | 0.00 | 0.00 | 60 | 1020.8 |
| 20260901152238 | 71 | 0 | 7.0 | 12.0 | 0.00 | 0.00 | 0.00 | 60 | 1020.7 |
| 20260901151732 | 71 | 0 | 7.0 | 12.0 | 0.00 | 0.00 | 0.00 | 61 | 1020.8 |
| 20260901151237 | 70 | 0 | 6.0 | 11.0 | 0.00 | 0.00 | 0.00 | 65 | 1020.7 |
| 20260901150237 | 70 | 0 | 6.0 | 9.0 | 0.00 | 0.00 | 0.00 | 64 | 1020.7 |
| 20260901150045 | 70 | 0 | 5.0 | 11.0 | 0.00 | 0.00 | 0.00 | 64 | 1020.7 |
| 20260901145536 | 70 | 0 | 5.0 | 11.0 | 0.00 | 0.00 | 0.00 | 63 | 1020.7 |
| 20260901145036 | 71 | 0 | 6.0 | 12.0 | 0.00 | 0.00 | 0.00 | 63 | 1020.7 |
| 20260901143537 | 70 | 0 | 5.0 | 9.0 | 0.00 | 0.00 | 0.00 | 67 | 1020.7 |
| 20260901143038 | 69 | 0 | 4.0 | 9.0 | 0.00 | 0.00 | 0.00 | 69 | 1020.9 |
| 20260901142537 | 69 | 0 | 5.0 | 9.0 | 0.00 | 0.00 | 0.00 | 66 | 1020.9 |
| 20260901141531 | 70 | 0 | 7.0 | 15.0 | 0.00 | 0.00 | 0.00 | 64 | 1020.8 |
| 20260901141032 | 70 | 0 | 6.0 | 12.0 | 0.00 | 0.00 | 0.00 | 64 | 1020.8 |
| 20260901140531 | 71 | 0 | 6.0 | 12.0 | 0.00 | 0.00 | 0.00 | 66 | 1020.9 |
| 20260901140032 | 70 | 0 | 7.0 | 14.0 | 0.00 | 0.00 | 0.00 | 63 | 1020.9 |
| 20260901135531 | 70 | 0 | 7.0 | 14.0 | 0.00 | 0.00 | 0.00 | 64 | 1020.9 |
| 20260901135032 | 70 | 0 | 4.0 | 12.0 | 0.00 | 0.00 | 0.00 | 64 | 1020.9 |
| 20260901134531 | 70 | 0 | 5.0 | 10.0 | 0.00 | 0.00 | 0.00 | 65 | 1021.0 |
| 20260901134032 | 70 | 0 | 6.0 | 10.0 | 0.00 | 0.00 | 0.00 | 66 | 1021.0 |
| 20260901133533 | 69 | 0 | 5.0 | 11.0 | 0.00 | 0.00 | 0.00 | 66 | 1021.0 |
| 20260901133031 | 70 | 0 | 5.0 | 13.0 | 0.00 | 0.00 | 0.00 | 66 | 1021.1 |
| 20260901132531 | 70 | 0 | 6.0 | 13.0 | 0.00 | 0.00 | 0.00 | 65 | 1021.1 |
| 20260901131531 | 69 | 0 | 7.0 | 12.0 | 0.00 | 0.00 | 0.00 | 65 | 1021.0 |
| 20260901131034 | 69 | 0 | 5.0 | 7.0 | 0.00 | 0.00 | 0.00 | 70 | 1021.0 |
| 20260901130533 | 69 | 0 | 5.0 | 11.0 | 0.00 | 0.00 | 0.00 | 67 | 1021.1 |
| 20260901130032 | 70 | 0 | 8.0 | 11.0 | 0.00 | 0.00 | 0.00 | 67 | 1021.2 |
| 20260901125530 | 69 | 0 | 5.0 | 11.0 | 0.00 | 0.00 | 0.00 | 68 | 1021.2 |
| 20260901125030 | 69 | 0 | 3.0 | 14.0 | 0.00 | 0.00 | 0.00 | 68 | 1021.1 |
| 20260901124532 | 69 | 0 | 7.0 | 15.0 | 0.00 | 0.00 | 0.00 | 68 | 1021.2 |
| 20260901124030 | 69 | 0 | 11.0 | 15.0 | 0.00 | 0.00 | 0.00 | 68 | 1021.2 |
| 20260901123530 | 70 | 0 | 7.0 | 12.0 | 0.00 | 0.00 | 0.00 | 68 | 1021.2 |
| 20260901123030 | 69 | 0 | 6.0 | 12.0 | 0.00 | 0.00 | 0.00 | 68 | 1021.1 |
| 20260901122532 | 69 | 0 | 8.0 | 12.0 | 0.00 | 0.00 | 0.00 | 68 | 1021.3 |
| 20260901122030 | 69 | 0 | 6.0 | 13.0 | 0.00 | 0.00 | 0.00 | 70 | 1021.3 |
| 20260901121527 | 68 | 0 | 6.0 | 12.0 | 0.00 | 0.00 | 0.00 | 71 | 1021.3 |
| 20260901121027 | 67 | 0 | 6.0 | 14.0 | 0.00 | 0.00 | 0.00 | 70 | 1021.2 |
| 20260901120527 | 69 | 0 | 10.0 | 14.0 | 0.00 | 0.00 | 0.00 | 69 | 1021.3 |
| 20260901120027 | 69 | 0 | 6.0 | 12.0 | 0.00 | 0.00 | 0.00 | 71 | 1021.2 |
| 20260901115527 | 68 | 0 | 6.0 | 15.0 | 0.00 | 0.00 | 0.00 | 72 | 1021.3 |
| 20260901115029 | 68 | 0 | 9.0 | 15.0 | 0.00 | 0.00 | 0.00 | 70 | 1021.2 |
| 20260901114528 | 69 | 0 | 8.0 | 15.0 | 0.00 | 0.00 | 0.00 | 70 | 1021.3 |
| 20260901114027 | 68 | 0 | 8.0 | 15.0 | 0.00 | 0.00 | 0.00 | 71 | 1021.3 |
| 20260901113527 | 68 | 0 | 9.0 | 15.0 | 0.00 | 0.00 | 0.00 | 70 | 1021.3 |
| 20260901113027 | 68 | 0 | 6.0 | 11.0 | 0.00 | 0.00 | 0.00 | 71 | 1021.2 |
| 20260901112527 | 69 | 0 | 6.0 | 11.0 | 0.00 | 0.00 | 0.00 | 73 | 1021.3 |
| 20260901112028 | 68 | 0 | 6.0 | 10.0 | 0.00 | 0.00 | 0.00 | 74 | 1021.2 |
| 20260901111027 | 68 | 0 | 6.0 | 11.0 | 0.00 | 0.00 | 0.00 | 74 | 1021.4 |
| 20260901110527 | 67 | 0 | 4.0 | 7.0 | 0.00 | 0.00 | 0.00 | 75 | 1021.3 |
| 20260901110027 | 67 | 0 | 4.0 | 12.0 | 0.00 | 0.00 | 0.00 | 75 | 1021.5 |
| 20260901105028 | 67 | 0 | 9.0 | 15.0 | 0.00 | 0.00 | 0.00 | 73 | 1021.3 |
| 20260901104526 | 69 | 0 | 11.0 | 15.0 | 0.00 | 0.00 | 0.00 | 71 | 1021.3 |
| 20260901104028 | 69 | 0 | 7.0 | 12.0 | 0.00 | 0.00 | 0.00 | 71 | 1021.3 |
| 20260901103529 | 69 | 0 | 8.0 | 12.0 | 0.00 | 0.00 | 0.00 | 73 | 1021.2 |
| 20260901103028 | 68 | 0 | 6.0 | 9.0 | 0.00 | 0.00 | 0.00 | 72 | 1021.3 |
| 20260901102528 | 67 | 0 | 4.0 | 9.0 | 0.00 | 0.00 | 0.00 | 73 | 1021.3 |
| 20260901102027 | 67 | 0 | 5.0 | 13.0 | 0.00 | 0.04 | 0.00 | 74 | 1021.3 |
| 20260901101527 | 67 | 0 | 8.0 | 15.0 | 0.00 | 0.05 | 0.00 | 73 | 1021.2 |
| 20260901101027 | 68 | 0 | 9.0 | 15.0 | 0.00 | 0.05 | 0.00 | 71 | 1021.3 |
| 20260901100527 | 68 | 0 | 5.0 | 11.0 | 0.00 | 0.05 | 0.00 | 72 | 1021.2 |
| 20260901100028 | 68 | 0 | 7.0 | 12.0 | 0.00 | 0.05 | 0.00 | 73 | 1021.2 |
| 20260901095529 | 67 | 0 | 5.0 | 12.0 | 0.00 | 0.05 | 0.00 | 74 | 1021.2 |
| 20260901095027 | 68 | 0 | 5.0 | 10.0 | 0.00 | 0.05 | 0.00 | 75 | 1021.2 |
| 20260901094527 | 67 | 0 | 4.0 | 9.0 | 0.00 | 0.05 | 0.00 | 76 | 1021.2 |
| 20260901094028 | 66 | 0 | 6.0 | 10.0 | 0.00 | 0.05 | 0.00 | 77 | 1021.3 |
| 20260901093527 | 66 | 0 | 5.0 | 11.0 | 0.00 | 0.05 | 0.00 | 77 | 1021.2 |
| 20260901093027 | 67 | 0 | 8.0 | 12.0 | 0.00 | 0.05 | 0.00 | 76 | 1021.2 |
| 20260901092529 | 67 | 0 | 8.0 | 12.0 | 0.00 | 0.05 | 0.00 | 77 | 1021.1 |
| 20260901091527 | 67 | 0 | 5.0 | 12.0 | 0.00 | 0.05 | 0.00 | 77 | 1021.1 |
| 20260901091029 | 67 | 0 | 6.0 | 9.0 | 0.00 | 0.05 | 0.00 | 77 | 1021.1 |
| 20260901090527 | 66 | 0 | 5.0 | 7.0 | 0.00 | 0.05 | 0.00 | 78 | 1021.1 |
| 20260901085526 | 66 | 0 | 4.0 | 10.0 | 0.00 | 0.06 | 0.00 | 80 | 1021.0 |
| 20260901084527 | 66 | 0 | 6.0 | 9.0 | 0.00 | 0.09 | 0.00 | 79 | 1020.9 |
| 20260901084027 | 67 | 0 | 5.0 | 9.0 | 0.00 | 0.14 | 0.00 | 79 | 1020.9 |
| 20260901082527 | 65 | 0 | 3.0 | 7.0 | 0.00 | 0.20 | 0.00 | 82 | 1020.7 |
| 20260901082028 | 65 | 0 | 4.0 | 7.0 | 0.00 | 0.20 | 0.00 | 83 | 1020.7 |
| 20260901081028 | 65 | 0 | 4.0 | 9.0 | 0.00 | 0.20 | 0.00 | 85 | 1020.6 |
| 20260901080027 | 64 | 0 | 4.0 | 6.0 | 0.00 | 0.20 | 0.00 | 87 | 1020.5 |
| 20260901075527 | 63 | 0 | 2.0 | 6.0 | 0.00 | 0.20 | 0.00 | 88 | 1020.4 |
| 20260901075029 | 63 | 0 | 4.0 | 6.0 | 0.00 | 0.20 | 0.00 | 89 | 1020.4 |
| 20260901074526 | 63 | 0 | 2.0 | 6.0 | 0.00 | 0.20 | 0.00 | 89 | 1020.3 |
| 20260901074027 | 63 | 0 | 2.0 | 6.0 | 0.00 | 0.20 | 0.00 | 90 | 1020.4 |
| 20260901073528 | 62 | 0 | 3.0 | 6.0 | 0.00 | 0.20 | 0.00 | 90 | 1020.2 |
| 20260901073027 | 62 | 0 | 3.0 | 6.0 | 0.00 | 0.20 | 0.00 | 91 | 1020.2 |
| 20260901072028 | 62 | 0 | 3.0 | 5.0 | 0.00 | 0.22 | 0.00 | 93 | 1020.1 |
| 20260901071524 | 61 | 0 | 2.0 | 3.0 | 0.00 | 0.22 | 0.00 | 93 | 1020.1 |
| 20260901070523 | 61 | 0 | 2.0 | 5.0 | 0.00 | 0.22 | 0.00 | 93 | 1019.9 |
| 20260901065521 | 60 | 0 | 3.0 | 5.0 | 0.00 | 0.23 | 0.00 | 94 | 1019.9 |
| 20260901065021 | 60 | 0 | 4.0 | 5.0 | 0.00 | 0.24 | 0.00 | 94 | 1019.9 |
| 20260901064520 | 60 | 0 | 2.0 | 5.0 | 0.00 | 0.24 | 0.00 | 94 | 1019.9 |
| 20260901064021 | 60 | 0 | 3.0 | 5.0 | 0.00 | 0.24 | 0.00 | 94 | 1019.8 |
| 20260901063522 | 60 | 0 | 2.0 | 4.0 | 0.00 | 0.24 | 0.00 | 95 | 1019.9 |
| 20260901063024 | 59 | 0 | 2.0 | 4.0 | 0.00 | 0.25 | 0.00 | 95 | 1019.8 |
| 20260901062022 | 59 | 0 | 2.0 | 5.0 | 0.00 | 0.25 | 0.00 | 94 | 1019.7 |
| 20260901061520 | 59 | 0 | 3.0 | 5.0 | 0.00 | 0.25 | 0.00 | 94 | 1019.7 |
| 20260901061020 | 59 | 0 | 0.0 | 3.0 | 0.00 | 0.25 | 0.00 | 94 | 1019.7 |
| 20260901060014 | 59 | 0 | 2.0 | 4.0 | 0.00 | 0.25 | 0.00 | 94 | 1019.6 |
| 20260901055512 | 59 | 0 | 2.0 | 6.0 | 0.00 | 0.25 | 0.00 | 94 | 1019.6 |
| 20260901055014 | 59 | 0 | 4.0 | 6.0 | 0.00 | 0.25 | 0.00 | 94 | 1019.5 |
| 20260901054514 | 59 | 0 | 2.0 | 4.0 | 0.00 | 0.25 | 0.00 | 94 | 1019.4 |
| 20260901053512 | 59 | 0 | 0.0 | 0.0 | 0.00 | 0.25 | 0.00 | 94 | 1019.4 |
| 20260901053011 | 59 | 0 | 0.0 | 3.0 | 0.00 | 0.25 | 0.00 | 94 | 1019.2 |
| 20260901052512 | 59 | 0 | 1.0 | 4.0 | 0.00 | 0.25 | 0.00 | 94 | 1019.3 |
| 20260901052011 | 59 | 0 | 0.0 | 4.0 | 0.00 | 0.25 | 0.00 | 94 | 1019.2 |
| 20260901051512 | 59 | 0 | 2.0 | 4.0 | 0.00 | 0.25 | 0.00 | 94 | 1019.2 |
| 20260901051014 | 59 | 0 | 2.0 | 4.0 | 0.00 | 0.25 | 0.00 | 94 | 1019.1 |
| 20260901050513 | 59 | 0 | 2.0 | 4.0 | 0.00 | 0.25 | 0.00 | 94 | 1019.1 |
| 20260901045512 | 59 | 0 | 2.0 | 3.0 | 0.00 | 0.25 | 0.00 | 94 | 1019.0 |
| 20260901045012 | 59 | 0 | 1.0 | 3.0 | 0.00 | 0.25 | 0.00 | 94 | 1019.0 |
| 20260901044512 | 59 | 0 | 2.0 | 3.0 | 0.00 | 0.25 | 0.00 | 94 | 1019.0 |
| 20260901043514 | 60 | 0 | 0.0 | 2.0 | 0.00 | 0.25 | 0.00 | 94 | 1018.9 |
| 20260901043012 | 60 | 0 | 0.0 | 3.0 | 0.00 | 0.25 | 0.00 | 94 | 1018.8 |
| 20260901042511 | 60 | 0 | 0.0 | 3.0 | 0.00 | 0.25 | 0.00 | 94 | 1018.8 |
| 20260901042010 | 60 | 0 | 1.0 | 4.0 | 0.00 | 0.25 | 0.00 | 94 | 1018.7 |
| 20260901041509 | 60 | 0 | 1.0 | 4.0 | 0.00 | 0.26 | 0.00 | 94 | 1018.6 |
| 20260901041010 | 60 | 0 | 2.0 | 4.0 | 0.00 | 0.27 | 0.00 | 94 | 1018.7 |
| 20260901040510 | 60 | 0 | 3.0 | 5.0 | 0.00 | 0.27 | 0.00 | 94 | 1018.7 |
| 20260901040011 | 60 | 0 | 3.0 | 5.0 | 0.00 | 0.27 | 0.00 | 94 | 1018.5 |
| 20260901035508 | 60 | 0 | 3.0 | 5.0 | 0.00 | 0.27 | 0.00 | 94 | 1018.7 |
| 20260901035008 | 60 | 0 | 3.0 | 5.0 | 0.00 | 0.27 | 0.00 | 94 | 1018.5 |
| 20260901033506 | 60 | 0 | 2.0 | 5.0 | 0.00 | 0.27 | 0.00 | 94 | 1018.5 |
| 20260901033006 | 60 | 0 | 2.0 | 5.0 | 0.00 | 0.27 | 0.00 | 94 | 1018.4 |
| 20260901032507 | 60 | 0 | 2.0 | 5.0 | 0.00 | 0.27 | 0.00 | 94 | 1018.5 |
| 20260901032006 | 60 | 0 | 2.0 | 4.0 | 0.00 | 0.27 | 0.00 | 94 | 1018.3 |
| 20260901031003 | 60 | 0 | 3.0 | 5.0 | 0.00 | 0.27 | 0.00 | 93 | 1018.2 |
| 20260901030503 | 60 | 0 | 3.0 | 5.0 | 0.00 | 0.27 | 0.00 | 93 | 1018.3 |
| 20260901030004 | 60 | 0 | 4.0 | 5.0 | 0.00 | 0.27 | 0.00 | 94 | 1018.3 |
| 20260901025503 | 60 | 0 | 3.0 | 5.0 | 0.00 | 0.27 | 0.00 | 94 | 1018.3 |
| 20260901025004 | 60 | 0 | 3.0 | 6.0 | 0.00 | 0.27 | 0.00 | 94 | 1018.3 |
| 20260901024503 | 61 | 0 | 4.0 | 6.0 | 0.00 | 0.27 | 0.00 | 93 | 1018.3 |
| 20260901024002 | 61 | 0 | 4.0 | 6.0 | 0.00 | 0.27 | 0.00 | 93 | 1018.3 |
| 20260901023005 | 61 | 0 | 4.0 | 7.0 | 0.00 | 0.27 | 0.00 | 93 | 1018.3 |
| 20260901022502 | 61 | 0 | 5.0 | 7.0 | 0.00 | 0.27 | 0.00 | 93 | 1018.3 |
| 20260901022002 | 61 | 0 | 4.0 | 6.0 | 0.00 | 0.27 | 0.00 | 93 | 1018.2 |
| 20260901021504 | 61 | 0 | 3.0 | 7.0 | 0.00 | 0.27 | 0.00 | 93 | 1018.4 |
| 20260901021004 | 61 | 0 | 4.0 | 7.0 | 0.00 | 0.27 | 0.00 | 93 | 1018.3 |
| 20260901020503 | 61 | 0 | 4.0 | 7.0 | 0.00 | 0.27 | 0.00 | 93 | 1018.3 |
| 20260901020002 | 61 | 0 | 3.0 | 6.0 | 0.00 | 0.27 | 0.00 | 93 | 1018.3 |
| 20260901015503 | 61 | 0 | 4.0 | 6.0 | 0.00 | 0.27 | 0.00 | 93 | 1018.4 |
| 20260901015002 | 61 | 0 | 4.0 | 6.0 | 0.00 | 0.27 | 0.00 | 93 | 1018.3 |
| 20260901014503 | 61 | 0 | 5.0 | 9.0 | 0.00 | 0.27 | 0.00 | 93 | 1018.3 |
| 20260901013505 | 61 | 0 | 5.0 | 7.0 | 0.00 | 0.27 | 0.00 | 93 | 1018.3 |
| 20260901012504 | 62 | 0 | 6.0 | 9.0 | 0.00 | 0.27 | 0.00 | 93 | 1018.2 |
| 20260901012004 | 62 | 0 | 5.0 | 10.0 | 0.00 | 0.27 | 0.00 | 93 | 1018.2 |
| 20260901011502 | 62 | 0 | 5.0 | 10.0 | 0.00 | 0.27 | 0.00 | 92 | 1018.1 |
| 20260901011004 | 62 | 0 | 5.0 | 7.0 | 0.00 | 0.27 | 0.00 | 92 | 1018.0 |
| 20260901010503 | 62 | 0 | 5.0 | 7.0 | 0.00 | 0.27 | 0.00 | 92 | 1018.0 |
| 20260901010003 | 62 | 0 | 5.0 | 7.0 | 0.00 | 0.27 | 0.00 | 92 | 1018.0 |
| 20260901005504 | 62 | 0 | 4.0 | 7.0 | 0.00 | 0.27 | 0.00 | 92 | 1018.1 |
| 20260901005003 | 62 | 0 | 3.0 | 6.0 | 0.00 | 0.27 | 0.00 | 92 | 1018.0 |
| 20260901004502 | 62 | 0 | 3.0 | 7.0 | 0.00 | 0.27 | 0.00 | 92 | 1018.0 |
| 20260901004003 | 62 | 0 | 4.0 | 7.0 | 0.00 | 0.27 | 0.00 | 92 | 1018.0 |
| 20260901003504 | 62 | 0 | 3.0 | 7.0 | 0.00 | 0.27 | 0.00 | 91 | 1018.1 |
| 20260901003003 | 62 | 0 | 3.0 | 7.0 | 0.00 | 0.27 | 0.00 | 91 | 1018.1 |
| 20260901002504 | 63 | 0 | 5.0 | 9.0 | 0.00 | 0.27 | 0.00 | 91 | 1018.1 |
| 20260901002003 | 63 | 0 | 5.0 | 9.0 | 0.00 | 0.27 | 0.00 | 91 | 1018.1 |
| 20260901001501 | 63 | 0 | 5.0 | 9.0 | 0.00 | 0.27 | 0.00 | 91 | 1018.1 |
| 20260901001004 | 63 | 0 | 6.0 | 11.0 | 0.00 | 0.27 | 0.00 | 91 | 1018.1 |
| 20260901000503 | 63 | 0 | 6.0 | 11.0 | 0.00 | 0.27 | 0.00 | 91 | 1018.1 |
| 20260901000002 | 63 | 0 | 5.0 | 11.0 | 0.00 | 0.27 | 0.00 | 91 | 1018.0 |
| 20260831235501 | 63 | 0 | 7.0 | 11.0 | 0.00 | 0.27 | 0.00 | 91 | 1018.1 |
| 20260831235002 | 63 | 0 | 5.0 | 10.0 | 0.00 | 0.27 | 0.00 | 91 | 1018.1 |
| 20260831234501 | 63 | 0 | 6.0 | 10.0 | 0.00 | 0.27 | 0.00 | 91 | 1018.1 |
| 20260831234000 | 63 | 0 | 4.0 | 10.0 | 0.00 | 0.27 | 0.00 | 91 | 1018.1 |
| 20260831233001 | 63 | 0 | 5.0 | 11.0 | 0.00 | 0.27 | 0.00 | 90 | 1018.1 |
| 20260831232502 | 63 | 0 | 4.0 | 11.0 | 0.00 | 0.27 | 0.00 | 90 | 1018.0 |
| 20260831232000 | 63 | 0 | 4.0 | 9.0 | 0.00 | 0.27 | 0.00 | 90 | 1017.9 |